ニート彗星

163P/NEAT (2005)

English version
Home page
Updated on April 23, 2005

---------------------------------------------------------------------

・ プロフィール

符号 163P/2004 V4
発見日 2004年11月5日
発見光度 18.8等
発見者 Near-Earth-Asteroid Tracking Team (Jet Propulsion Laboratory)

・ 写真集

・ 軌道要素

Epoch 2005 Jan. 30.0 TT = JDT 2453400.5
T 2005 Jan. 31.31016 TT                                 MPC
q   1.9198565            (2000.0)            P               Q
n   0.14058442     Peri.  347.18160     -0.02128487     -0.97754408
a   3.6630647      Node   103.74693     +0.93526930     -0.09357221
e   0.4758879      Incl.   12.46458     +0.35329631     +0.18881690
P   7.01
>From 190 observations 1990-2004, mean residual 0".58.

・ 星図

・ 光度変化

        m1 = 14.0 + 5 logΔ + 10.0 log r

---------------------------------------------------------------------

軌道要素はM.P.E.C. 2004-Y13に掲載されたものです。
星図は StellaNavigator Ver.2.0 for Windows (アストロアーツ 編著 / アスキー出版局刊) で作成したものです。
光度グラフはComet for Windowsで作成したものです。

---------------------------------------------------------------------

Copyright(C) Seiichi Yoshida (comet@aerith.net). All rights reserved.